Terminal Aerodrome Forecast
Issued by NWS

Home | Current Version | Previous Version | Text Only | Print | Product List | Glossary On
Versions: 1 2 3 4 5 6 7 8 9 10 11 12 13 14 15 16 17 18 19 20 21 22 23
000
FTUS44 KHGX 260306 AAA
TAFIAH
TAF AMD
KIAH 260306Z 2603/2706 18003KT P6SM SKC
     FM261900 18008KT P6SM SKC=

USA.gov is the U.S. government's official web portal to all federal, state and local government web resources and services.